Regional Weather Roundup
Issued by NWS Sioux Falls, SD

Home | Current Version | Previous Version | Text Only | Print | Product List | Glossary Off
Versions: 1 2 3 4 5 6 7 8 9 10 11 12 13 14 15 16 17 18 19 20 21 22 23 24 25 26 27 28 29 30 31 32 33 34 35 36 37 38 39 40 41 42 43 44 45 46 47 48 49 50

000
ASUS43 KFSD 061110
RWRFSD

WEATHER ROUNDUP FOR SE SOUTH DAKOTA/SW MINNESOTA/NW IOWA
NATIONAL WEATHER SERVICE SIOUX FALLS SD
500 AM CST TUE DEC 06 2016

NOTE: "FAIR" INDICATES FEW OR NO CLOUDS BELOW 12,000 FEET WITH NO
SIGNIFICANT WEATHER AND OR OBSTRUCTIONS TO VISIBILITY.


SDZ038>040-050-052>070-061200-
SOUTHEAST SOUTH DAKOTA

CITY           SKY/WX    TMP DP  RH WIND       PRES   REMARKS
BROOKINGS      FLURRIES  15   9  76 MISG      29.75F
CHAMBERLAIN    CLEAR     17   9  72 W21G30    29.91S WCI   0
HURON          PTCLDY    14   7  73 W24G33    29.85S WCI  -5
MADISON        CLOUDY    14   9  79 W21G30    29.79S WCI  -4
MITCHELL       FLURRIES  18  12  77 W24G32    29.89S WCI   0
SIOUX FALLS    PTCLDY    16  10  77 W14G21    29.85S WCI   2
WINNER         FAIR      16   6  65 W17G29    29.94S WCI   0
YANKTON        CLEAR     18   7  62 W18       29.91F WCI   2
$$

MNZ071-072-080-081-089-090-097-098-061200-
SOUTHWEST MINNESOTA

CITY           SKY/WX    TMP DP  RH WIND       PRES   REMARKS
FAIRMONT       CLOUDY    23  17  78 W24       29.80S WCI   7
JACKSON        CLOUDY    18  12  79 W22       29.80F WCI   0
LUVERNE        PTCLDY    18  10  73 W23G31    29.84S WCI   0
MARSHALL       CLOUDY    16  10  77 W20G31    29.76S WCI  -1
MONTEVIDEO     CLOUDY    19  10  68 W12G24    29.73S WCI   7
PIPESTONE      PTCLDY    16   9  73 W23G32    29.77F WCI  -2
REDWOOD FALLS  CLOUDY    19  10  68 W21G28    29.77S WCI   3
TRACY          PTCLDY    18  12  78 W16G24    29.77S WCI   3
WINDOM         PTCLDY    18  12  79 SW18G24   29.78F WCI   2
WORTHINGTON    PTCLDY    15  10  80 W30       29.79F WCI  -5
$$

IAZ001>003-012>014-020>022-031-032-NEZ013-014-SDZ071-061200-
NORTHWEST IOWA

CITY           SKY/WX    TMP DP  RH WIND       PRES   REMARKS
CHEROKEE       CLOUDY    21  16  81 W12G18    29.88F WCI   9
DENISON        PTCLDY    25  16  68 W12G21    29.89R WCI  14
ESTHERVILLE    CLOUDY    21  15  78 W23G31    29.82R WCI   5
LE MARS        PTCLDY    19  10  68 W14G22    29.92S WCI   6
ORANGE CITY    PTCLDY    18  14  86 W22G29    29.86S WCI   0
SHELDON        PTCLDY    18  12  79 W22G30    29.84S WCI   0
SIOUX CITY     CLEAR     22  10  60 NW18G24   29.93S WCI   7
SPENCER        CLOUDY    19  12  74 W25G31    29.85S WCI   1
STORM LAKE     CLOUDY    21  16  79 W22G28    29.85F WCI   5
$$

ABBREVIATIONS USED IN REMARKS
   TC - TEMPERATURE IN CELSIUS
  WCI - WIND CHILL INDEX
   HX - HEAT INDEX
  VSB - VISIBILITY





USA.gov is the U.S. government's official web portal to all federal, state and local government web resources and services.